GW0472 Weather Reports


Display with metric or nautical units.
time (UTC)temp
F
wind
direction
speed
MPH
gust
MPH
rain 1hr
in
rain 24hr
in
rain mn
in
humidity
%
barometer
mb
20260507130239 54 336 3.0 8.0 0.00 0.00 0.00 55 1012.2
20260507125738 54 325 3.0 6.0 0.00 0.00 0.00 57 1012.3
20260507125235 53 300 1.0 6.0 0.00 0.00 0.00 58 1012.5
20260507124731 53 301 1.0 8.0 0.00 0.00 0.00 58 1012.3
20260507124228 53 338 4.0 7.0 0.00 0.00 0.00 59 1012.3
20260507123727 53 319 2.0 6.0 0.00 0.00 0.00 61 1012.1
20260507123224 53 309 3.0 5.0 0.00 0.00 0.00 60 1012.0
20260507122718 53 312 1.0 6.0 0.00 0.00 0.00 62 1012.1
20260507122215 53 319 3.0 6.0 0.00 0.00 0.00 64 1012.1
20260507121711 52 319 4.0 6.0 0.00 0.00 0.00 62 1012.0
20260507121207 52 321 3.0 5.0 0.00 0.00 0.00 63 1011.8
20260507120703 52 322 4.0 5.0 0.00 0.00 0.00 63 1012.1
20260507120200 52 305 4.0 7.0 0.00 0.00 0.00 62 1012.2
20260507115656 52 310 4.0 6.0 0.00 0.00 0.00 62 1012.1
20260507115152 52 326 4.0 5.0 0.00 0.00 0.00 60 1012.0
20260507114648 52 317 4.0 5.0 0.00 0.00 0.00 62 1012.3
20260507114146 52 312 0.0 5.0 0.00 0.00 0.00 61 1012.1
20260507113643 52 301 0.0 1.0 0.00 0.00 0.00 63 1012.1
20260507113139 52 307 1.0 2.0 0.00 0.00 0.00 63 1012.2
20260507112637 52 291 1.0 1.0 0.00 0.00 0.00 63 1012.2
20260507112133 51 283 0.0 0.0 0.00 0.00 0.00 67 1012.4
20260507111631 51 283 0.0 0.0 0.00 0.00 0.00 68 1012.1
20260507111128 51 291 0.0 1.0 0.00 0.00 0.00 65 1012.0
20260507110624 51 302 2.0 2.0 0.00 0.00 0.00 63 1011.8
20260507110121 51 303 2.0 3.0 0.00 0.00 0.00 66 1011.6
20260507105617 51 302 2.0 3.0 0.00 0.00 0.00 63 1011.7
20260507105113 51 304 3.0 5.0 0.00 0.00 0.00 66 1011.6
20260507104611 51 305 2.0 2.0 0.00 0.00 0.00 65 1011.5
20260507104107 51 300 2.0 3.0 0.00 0.00 0.00 66 1011.3
20260507103603 51 305 2.0 2.0 0.00 0.00 0.00 67 1011.3
20260507103100 51 301 2.0 3.0 0.00 0.00 0.00 66 1011.5
20260507102557 51 299 2.0 3.0 0.00 0.00 0.00 66 1011.5
20260507102053 51 312 2.0 3.0 0.00 0.00 0.00 65 1011.2
20260507101548 51 312 2.0 3.0 0.00 0.00 0.00 65 1011.4
20260507101045 51 304 2.0 2.0 0.00 0.00 0.00 66 1011.3
20260507100542 51 311 2.0 3.0 0.00 0.00 0.00 66 1011.0
20260507100041 52 305 2.0 3.0 0.00 0.00 0.00 66 1011.1
20260507095538 52 315 0.0 1.0 0.00 0.00 0.00 64 1011.0
20260507095035 52 291 0.0 0.0 0.00 0.00 0.00 65 1010.9
20260507094531 52 302 0.0 1.0 0.00 0.00 0.00 63 1010.9
20260507094028 52 295 0.0 0.0 0.00 0.00 0.00 63 1010.9
20260507093525 52 299 0.0 1.0 0.00 0.00 0.00 62 1011.1
20260507093024 53 301 2.0 3.0 0.00 0.00 0.00 60 1011.1
20260507092520 53 322 3.0 6.0 0.00 0.00 0.00 60 1010.9
20260507092017 53 334 5.0 6.0 0.00 0.00 0.00 60 1010.9
20260507091514 53 314 5.0 6.0 0.00 0.00 0.00 60 1010.9
20260507091010 53 317 4.0 5.0 0.00 0.00 0.00 63 1010.7
20260507090505 53 313 3.0 5.0 0.00 0.00 0.00 63 1010.7
20260507090003 53 312 3.0 6.0 0.00 0.00 0.00 61 1010.9
20260507085500 53 313 3.0 6.0 0.00 0.00 0.00 60 1010.9
20260507084956 53 343 4.0 7.0 0.00 0.00 0.00 60 1010.9
20260507084453 53 317 4.0 7.0 0.00 0.00 0.00 65 1010.6
20260507083950 53 319 4.0 7.0 0.00 0.00 0.00 65 1010.9
20260507083446 53 317 5.0 8.0 0.00 0.00 0.00 65 1010.9
20260507082943 53 322 5.0 8.0 0.00 0.00 0.00 65 1010.8
20260507082439 53 326 5.0 7.0 0.00 0.00 0.00 68 1010.6
20260507081936 53 329 4.0 8.0 0.00 0.00 0.00 68 1010.6
20260507081432 54 322 5.0 7.0 0.00 0.00 0.00 71 1010.5
20260507080929 54 328 5.0 8.0 0.00 0.00 0.00 72 1010.5
20260507080425 54 312 6.0 7.0 0.00 0.00 0.00 74 1010.3
20260507075920 54 334 5.0 7.0 0.00 0.00 0.00 74 1010.3
20260507075417 54 332 5.0 7.0 0.00 0.00 0.00 75 1010.2
20260507074914 54 324 4.0 7.0 0.00 0.00 0.00 75 1010.1
20260507074410 54 324 3.0 5.0 0.00 0.00 0.00 77 1010.1
20260507073908 54 314 3.0 6.0 0.00 0.00 0.00 77 1010.2
20260507073404 54 329 6.0 7.0 0.00 0.00 0.00 76 1010.0
20260507072901 54 321 5.0 7.0 0.00 0.00 0.00 76 1010.2
20260507072359 54 325 5.0 7.0 0.00 0.00 0.00 77 1010.2
20260507071856 54 315 5.0 8.0 0.00 0.00 0.00 76 1010.1
20260507071353 55 325 6.0 8.0 0.00 0.00 0.00 76 1010.2
20260507070849 55 339 6.0 8.0 0.00 0.00 0.00 75 1010.4
20260507070347 55 351 2.0 5.0 0.00 0.00 0.00 76 1010.5
20260507065843 54 323 4.0 5.0 0.00 0.00 0.00 77 1010.7
20260507065340 54 333 2.0 3.0 0.00 0.00 0.00 79 1010.7
20260507064837 54 297 2.0 2.0 0.00 0.00 0.00 79 1010.7
20260507064336 55 312 1.0 2.0 0.00 0.00 0.00 79 1010.8
20260507063833 55 317 2.0 2.0 0.00 0.00 0.00 79 1010.6
20260507063330 55 313 2.0 2.0 0.00 0.00 0.00 78 1010.5
20260507062826 55 321 3.0 3.0 0.00 0.00 0.00 76 1010.6
20260507062323 55 312 3.0 5.0 0.00 0.00 0.00 75 1010.6
20260507061822 55 338 2.0 6.0 0.00 0.00 0.00 75 1010.6
20260507061319 55 315 5.0 6.0 0.00 0.00 0.00 75 1010.6
20260507060818 55 302 1.0 6.0 0.00 0.00 0.00 76 1010.5
20260507060314 55 311 0.0 2.0 0.00 0.00 0.00 78 1010.6
20260507055811 55 317 2.0 5.0 0.00 0.00 0.00 79 1010.4
20260507055306 55 322 3.0 3.0 0.00 0.00 0.00 80 1010.4
20260507054802 55 300 4.0 5.0 0.00 0.00 0.00 80 1010.4
20260507054259 55 324 3.0 5.0 0.00 0.00 0.00 80 1010.4
20260507053756 56 318 4.0 6.0 0.00 0.00 0.00 79 1010.3
20260507053254 56 314 4.0 6.0 0.00 0.00 0.00 79 1010.5
20260507052753 56 312 3.0 5.0 0.00 0.00 0.00 79 1010.6
20260507052249 56 315 2.0 6.0 0.00 0.00 0.00 79 1010.2
20260507051747 56 323 4.0 5.0 0.00 0.00 0.00 79 1010.3
20260507051244 56 297 1.0 5.0 0.00 0.00 0.00 80 1010.4
20260507050740 56 341 1.0 2.0 0.00 0.00 0.00 82 1010.3
20260507050237 56 297 0.0 1.0 0.00 0.00 0.00 81 1010.1
20260507045734 56 316 3.0 3.0 0.00 0.00 0.00 81 1010.2
20260507045230 56 331 4.0 6.0 0.00 0.00 0.00 79 1010.3
20260507044727 56 334 4.0 6.0 0.00 0.00 0.00 80 1010.1
20260507044224 56 307 3.0 3.0 0.00 0.00 0.00 81 1010.2
20260507043720 56 317 3.0 5.0 0.00 0.00 0.00 83 1010.3
20260507043217 56 353 1.0 5.0 0.00 0.00 0.00 83 1010.2
20260507042714 56 325 3.0 3.0 0.00 0.00 0.00 84 1010.3
20260507042208 57 321 4.0 6.0 0.00 0.00 0.00 83 1010.4
20260507041706 57 320 3.0 6.0 0.00 0.00 0.00 83 1010.3
20260507041202 57 331 5.0 7.0 0.00 0.00 0.00 84 1010.3
20260507040659 57 317 4.0 7.0 0.00 0.00 0.00 83 1010.2
20260507040155 57 312 1.0 3.0 0.00 0.00 0.00 84 1010.1
20260507035651 57 304 1.0 6.0 0.00 0.18 0.18 84 1010.1
20260507035148 57 318 3.0 6.0 0.00 0.18 0.18 83 1010.0
20260507034644 57 324 6.0 9.0 0.00 0.18 0.18 83 1009.9
20260507034142 57 321 3.0 5.0 0.00 0.18 0.18 84 1010.0
20260507033640 57 320 5.0 8.0 0.00 0.18 0.18 83 1009.9
20260507033137 57 336 5.0 13.0 0.00 0.18 0.18 83 1010.0
20260507032635 58 347 5.0 6.0 0.00 0.18 0.18 83 1010.1
20260507032130 57 299 3.0 9.0 0.00 0.18 0.18 83 1010.3
20260507031627 58 323 5.0 8.0 0.00 0.18 0.18 83 1009.9
20260507031124 58 315 5.0 13.0 0.00 0.18 0.18 83 1009.8
20260507030621 58 317 3.0 8.0 0.00 0.18 0.18 83 1010.1
20260507030119 58 307 2.0 6.0 0.00 0.18 0.18 83 1010.0
20260507025616 58 326 3.0 5.0 0.00 0.18 0.18 83 1009.7
20260507025112 58 301 2.0 7.0 0.00 0.18 0.18 82 1009.8
20260507024611 58 327 5.0 13.0 0.00 0.18 0.18 82 1009.6
20260507024108 59 308 3.0 5.0 0.00 0.18 0.18 82 1009.7
20260507023603 59 321 0.0 2.0 0.00 0.18 0.18 82 1009.6
20260507023101 59 47 3.0 7.0 0.00 0.18 0.18 82 1009.6
20260507022557 59 320 5.0 8.0 0.00 0.18 0.18 82 1009.4
20260507022052 59 355 4.0 7.0 0.00 0.18 0.18 83 1009.4
20260507021549 60 315 0.0 2.0 0.00 0.18 0.18 84 1009.5
20260507021045 60 301 0.0 1.0 0.00 0.18 0.18 82 1009.5
20260507020543 60 317 2.0 5.0 0.00 0.18 0.18 82 1009.5
20260507020039 60 305 4.0 9.0 0.00 0.18 0.18 82 1009.3
20260507015538 60 347 5.0 6.0 0.00 0.18 0.18 81 1009.5
20260507015035 60 315 7.0 10.0 0.00 0.18 0.18 81 1009.3
20260507014531 60 340 7.0 10.0 0.00 0.18 0.18 80 1009.1
20260507014027 60 311 6.0 14.0 0.00 0.18 0.18 81 1008.9
20260507013524 60 320 6.0 11.0 0.00 0.18 0.18 80 1009.0
20260507013021 61 319 7.0 10.0 0.00 0.18 0.18 80 1009.1
20260507012518 61 334 7.0 9.0 0.00 0.18 0.18 82 1009.0
20260507012014 61 284 0.0 6.0 0.00 0.18 0.18 80 1009.4
20260507011512 61 292 0.0 2.0 0.00 0.18 0.18 81 1009.3
20260507011008 61 25 3.0 5.0 0.00 0.18 0.18 82 1009.2
20260507010503 61 331 1.0 2.0 0.00 0.18 0.18 82 1009.2
20260507005959 62 308 0.0 1.0 0.00 0.18 0.18 81 1009.5
20260507005457 62 331 0.0 1.0 0.00 0.18 0.18 82 1009.3
20260507004953 62 272 1.0 2.0 0.00 0.18 0.18 81 1009.1
20260507004450 62 312 0.0 1.0 0.00 0.18 0.18 82 1009.2
20260507003948 62 310 1.0 2.0 0.00 0.18 0.18 82 1009.2
20260507003442 62 305 2.0 7.0 0.00 0.18 0.18 81 1008.9
20260507002938 62 246 6.0 7.0 0.00 0.18 0.18 82 1008.8
20260507002435 62 267 2.0 3.0 0.00 0.18 0.18 84 1009.0
20260507001932 62 328 2.0 13.0 0.00 0.18 0.18 84 1008.7
20260507001428 62 254 0.0 3.0 0.00 0.18 0.18 85 1008.9
20260507000926 62 315 4.0 5.0 0.00 0.18 0.18 86 1008.9
20260507000421 63 347 4.0 7.0 0.00 0.18 0.18 87 1008.5
20260506235917 63 10 1.0 2.0 0.00 0.18 0.18 87 1008.5
20260506235415 63 25 1.0 3.0 0.00 0.18 0.18 87 1008.2
20260506234910 64 311 3.0 5.0 0.00 0.18 0.18 87 1008.5
20260506234408 64 319 4.0 6.0 0.00 0.18 0.18 86 1007.9
20260506233905 64 326 9.0 10.0 0.00 0.18 0.18 88 1007.6
20260506233401 65 303 4.0 6.0 0.00 0.18 0.18 90 1007.7
20260506232858 66 325 3.0 3.0 0.00 0.18 0.18 89 1007.7
20260506232354 66 267 1.0 1.0 0.00 0.18 0.18 89 1007.5
20260506231850 66 270 1.0 1.0 0.00 0.18 0.18 90 1007.5
20260506231348 66 269 0.0 0.0 0.00 0.18 0.18 89 1007.4
20260506230845 66 243 0.0 1.0 0.00 0.18 0.18 89 1007.4
20260506230342 66 215 2.0 3.0 0.00 0.18 0.18 90 1007.4
20260506225838 66 225 0.0 1.0 0.00 0.18 0.18 91 1007.5
20260506225336 66 227 0.0 0.0 0.00 0.18 0.18 92 1007.6
20260506224833 66 251 0.0 0.0 0.00 0.18 0.18 92 1007.6
20260506224330 66 243 0.0 0.0 0.00 0.18 0.18 92 1007.2
20260506223826 66 242 0.0 1.0 0.00 0.18 0.18 93 1007.3
20260506223321 66 256 0.0 0.0 0.00 0.18 0.18 93 1007.3
20260506222819 66 253 0.0 0.0 0.00 0.18 0.18 93 1007.4
20260506222313 66 265 0.0 0.0 0.00 0.18 0.18 93 1007.3
20260506221807 66 264 0.0 0.0 0.00 0.18 0.18 93 1007.5
20260506221304 66 253 0.0 0.0 0.00 0.18 0.18 93 1007.3
20260506220801 66 252 0.0 0.0 0.00 0.18 0.18 92 1007.4
20260506220256 66 252 0.0 0.0 0.00 0.18 0.18 92 1007.4
20260506215753 66 260 0.0 0.0 0.00 0.18 0.18 92 1007.5
20260506215249 66 263 0.0 0.0 0.00 0.18 0.18 92 1007.4
20260506214745 66 257 0.0 0.0 0.00 0.18 0.18 92 1007.1
20260506214242 66 257 0.0 0.0 0.00 0.18 0.18 92 1007.1
20260506213741 66 257 0.0 0.0 0.00 0.18 0.18 92 1007.2
20260506213237 66 262 0.0 1.0 0.00 0.18 0.18 92 1007.3
20260506212735 66 262 0.0 1.0 0.00 0.18 0.18 92 1007.2
20260506212230 66 273 1.0 2.0 0.00 0.18 0.18 91 1007.3
20260506211725 66 251 0.0 0.0 0.00 0.18 0.18 91 1006.9
20260506211222 66 235 0.0 0.0 0.00 0.18 0.18 91 1006.7
20260506210719 66 242 0.0 1.0 0.00 0.18 0.18 91 1006.6
20260506210216 66 251 0.0 1.0 0.00 0.18 0.18 91 1006.9
20260506205713 66 247 0.0 0.0 0.00 0.18 0.18 91 1006.6
20260506205208 66 212 2.0 2.0 0.00 0.18 0.18 91 1006.6
20260506204706 66 228 0.0 2.0 0.00 0.18 0.18 91 1006.5
20260506204203 65 224 2.0 5.0 0.00 0.18 0.18 91 1006.2
20260506203701 65 206 3.0 3.0 0.00 0.18 0.18 91 1006.3
20260506203157 65 207 1.0 2.0 0.00 0.18 0.18 91 1006.4
20260506202656 65 209 2.0 2.0 0.00 0.18 0.18 91 1006.4
20260506202151 65 224 1.0 2.0 0.00 0.18 0.18 91 1006.9
20260506201648 65 236 1.0 3.0 0.00 0.18 0.18 91 1006.6
20260506201145 65 232 1.0 3.0 0.00 0.18 0.18 91 1006.5
20260506200642 65 221 1.0 2.0 0.00 0.18 0.18 91 1006.5
20260506200138 65 244 2.0 2.0 0.00 0.18 0.18 91 1006.5
20260506195635 65 237 1.0 3.0 0.00 0.18 0.18 92 1006.6
20260506195131 65 206 3.0 3.0 0.00 0.18 0.18 92 1006.7
20260506194629 65 202 2.0 3.0 0.00 0.18 0.18 93 1006.7
20260506194125 65 232 1.0 2.0 0.00 0.18 0.18 93 1006.9
20260506193623 65 240 1.0 1.0 0.00 0.18 0.18 93 1006.9
20260506193120 65 240 1.0 2.0 0.00 0.18 0.18 93 1006.9
20260506192617 65 237 1.0 3.0 0.00 0.18 0.18 92 1006.6
20260506192112 65 176 3.0 5.0 0.00 0.18 0.18 92 1006.7
20260506191609 65 243 1.0 1.0 0.00 0.18 0.18 93 1006.5
20260506191105 64 231 1.0 2.0 0.00 0.18 0.18 93 1006.7
20260506190603 64 218 1.0 5.0 0.00 0.18 0.18 92 1006.7
20260506190100 64 231 3.0 6.0 0.00 0.18 0.18 92 1006.9
20260506185557 64 193 3.0 8.0 0.00 0.18 0.18 92 1007.2
20260506185053 64 191 3.0 5.0 0.00 0.18 0.18 92 1007.0
20260506184551 64 214 5.0 8.0 0.00 0.18 0.18 91 1007.1
20260506184048 65 194 3.0 6.0 0.00 0.18 0.18 90 1007.0
20260506183543 65 208 4.0 8.0 0.00 0.18 0.18 90 1007.2
20260506183040 65 211 5.0 9.0 0.00 0.18 0.18 90 1007.1
20260506182538 65 193 8.0 10.0 0.00 0.18 0.18 90 1007.1
20260506182035 65 169 3.0 6.0 0.00 0.18 0.18 90 1006.9
20260506181533 64 168 5.0 9.0 0.00 0.18 0.18 91 1007.1
20260506181029 64 196 3.0 8.0 0.00 0.18 0.18 92 1007.0
20260506180526 64 178 7.0 8.0 0.00 0.18 0.18 92 1007.0
20260506180022 64 190 4.0 8.0 0.00 0.18 0.18 92 1007.0
20260506175519 64 208 3.0 6.0 0.00 0.18 0.18 92 1006.9
20260506175016 64 212 1.0 3.0 0.00 0.18 0.18 92 1007.3
20260506174514 64 196 4.0 8.0 0.00 0.18 0.18 92 1007.1
20260506174010 64 198 1.0 7.0 0.00 0.18 0.18 92 1007.2
20260506173508 64 198 1.0 6.0 0.00 0.18 0.18 92 1006.9
20260506173005 64 189 5.0 10.0 0.00 0.18 0.18 92 1007.1
20260506172502 64 206 4.0 10.0 0.00 0.18 0.18 92 1007.3
20260506171958 64 192 5.0 11.0 0.00 0.18 0.18 92 1007.1
20260506171455 64 224 3.0 9.0 0.00 0.18 0.18 92 1007.2
20260506170953 64 196 8.0 10.0 0.00 0.18 0.18 92 1007.1
20260506170449 64 195 6.0 9.0 0.00 0.18 0.18 92 1007.0
20260506165948 63 199 7.0 11.0 0.00 0.18 0.18 93 1007.2
20260506165446 63 185 9.0 13.0 0.00 0.18 0.18 93 1007.4
20260506164942 62 181 5.0 10.0 0.00 0.18 0.18 93 1007.4
20260506164439 62 196 5.0 11.0 0.00 0.18 0.18 94 1007.1
20260506163937 62 236 6.0 11.0 0.00 0.18 0.18 94 1007.0
20260506163431 62 200 5.0 11.0 0.00 0.18 0.18 94 1007.1
20260506162926 62 195 9.0 14.0 0.00 0.18 0.18 94 1007.1
20260506162424 61 217 7.0 11.0 0.00 0.18 0.18 94 1007.2
20260506161921 61 221 6.0 9.0 0.00 0.18 0.18 95 1007.4
20260506161420 61 194 4.0 11.0 0.00 0.18 0.18 95 1007.3
20260506160911 61 206 3.0 7.0 0.00 0.18 0.18 96 1007.1
20260506160408 61 204 4.0 7.0 0.00 0.18 0.18 96 1007.3
20260506155906 60 188 6.0 11.0 0.00 0.18 0.18 96 1007.3
20260506155403 60 212 7.0 13.0 0.00 0.18 0.18 97 1007.4
20260506153525 60 195 7.0 10.0 0.00 0.18 0.18 98 1007.4
20260506153022 60 209 5.0 13.0 0.00 0.18 0.18 98 1007.3
20260506152519 60 201 8.0 17.0 0.00 0.18 0.18 98 1007.3
20260506152018 60 189 11.0 15.0 0.00 0.18 0.18 98 1007.3
20260506151515 60 211 4.0 17.0 0.00 0.18 0.18 99 1007.3
20260506151012 60 225 10.0 17.0 0.00 0.18 0.18 99 1007.4
20260506150508 60 208 6.0 10.0 0.00 0.18 0.18 99 1007.3
20260506150005 60 198 10.0 13.0 0.07 0.18 0.18 99 1007.2
20260506145502 60 192 4.0 8.0 0.07 0.18 0.18 99 1007.1
20260506144959 60 202 4.0 13.0 0.00 0.17 0.17 99 1007.4
20260506144456 60 181 9.0 10.0 0.05 0.17 0.17 99 1007.6
20260506143954 60 252 7.0 14.0 0.05 0.17 0.17 99 1008.0
20260506143451 60 173 4.0 10.0 0.00 0.16 0.16 99 1008.0
20260506142949 60 192 8.0 10.0 0.00 0.16 0.16 99 1008.2
20260506142446 60 178 6.0 14.0 0.07 0.16 0.16 99 1008.0
20260506141944 60 171 6.0 8.0 0.00 0.15 0.15 99 1008.1
20260506141442 60 198 5.0 11.0 0.00 0.15 0.15 99 1008.2
20260506140940 60 192 4.0 10.0 0.07 0.15 0.15 99 1007.9
20260506140437 60 191 3.0 8.0 0.07 0.15 0.15 99 1007.7
20260506135934 60 187 5.0 11.0 0.00 0.14 0.14 99 1007.7
20260506135431 60 199 4.0 16.0 0.05 0.14 0.14 99 1007.7
20260506134927 60 191 10.0 13.0 0.05 0.14 0.14 99 1007.9
20260506134423 60 220 7.0 13.0 0.00 0.13 0.13 99 1007.6
20260506133920 60 187 11.0 14.0 0.07 0.13 0.13 99 1007.6
20260506133417 60 187 5.0 13.0 0.07 0.13 0.13 99 1007.8
20260506132914 60 196 8.0 15.0 0.00 0.12 0.12 99 1008.0
20260506132411 60 197 5.0 10.0 0.05 0.12 0.12 99 1008.1
20260506131909 60 164 6.0 11.0 0.00 0.11 0.11 99 1007.9
20260506131405 60 174 7.0 13.0 0.07 0.11 0.11 99 1007.9
20260506130902 60 209 3.0 8.0 0.12 0.11 0.11 99 1007.9